Connellys Springs, NC

6:11 PM EDT on August 27, 2016 (GMT -0400)
Morganton-Lenoir

Weather History for KMRN - October, 2012

Change the Weather History Date:

Monday, October 29, 2012

  Actual Average (KHKY) Record (KHKY)
Temperature  
Mean Temperature 42 °F -  
Max Temperature 50 °F 66 °F 82 °F (1984)
Min Temperature 33 °F 43 °F 27 °F (1976)
Degree Days  
Heating Degree Days 24    
Moisture  
Dew Point 31 °F    
Average Humidity 61    
Maximum Humidity 93    
Minimum Humidity 47    
Precipitation  
Precipitation 0.00 in - - ()
Sea Level Pressure  
Sea Level Pressure 29.69 in    
Wind  
Wind Speed 6 mph (WNW)    
Max Wind Speed 22 mph    
Max Gust Speed 37 mph    
Visibility 10 miles    
Events      
Averages and records for this station are not official NWS values.
T = Trace of Precipitation, MM = Missing Value Source: NWS Daily Summary

Daily Weather History Graph

Daily Weather History Graph

Search for Another Location

Airport or City:

Trip Planner

Search our weather history database for the weather conditions in past years. The results will help you decide how hot, cold, wet, or windy it might be!

Date:

Astronomy

Oct. 29, 2012 Rise Set
Actual Time 7:46 AM EDT 6:33 PM EDT
Civil Twilight 7:19 AM EDT 6:59 PM EDT
Nautical Twilight 6:49 AM EDT 7:29 PM EDT
Astronomical Twilight 6:20 AM EDT 7:59 PM EDT
Moon 6:26 PM EDT (10/29) 7:34 AM EDT (10/29)
Length of Visible Light 11h 39m
Length of Day
10h 47m
Full, 100% of the Moon is Illuminated
Oct 29
Full
Oct 29
Full
Nov 6
Last Quarter
Nov 13
New
Nov 20
First Quarter

Hourly Weather History & Observations

Time (EDT) Temp. Windchill Dew Point Humidity Pressure Visibility Wind Dir Wind Speed Gust Speed Precip Events Conditions
12:15 AM 37.4 °F - 33.8 °F 87% 29.77 in 10.0 mi Calm Calm - N/A   Clear
12:35 AM 35.6 °F - 33.8 °F 93% 29.77 in 10.0 mi Calm Calm - N/A   Clear
12:55 AM 35.6 °F - 33.8 °F 93% 29.76 in 10.0 mi Calm Calm - N/A   Clear
1:15 AM 35.6 °F - 33.8 °F 93% 29.76 in 10.0 mi Calm Calm - N/A   Clear
1:35 AM 33.8 °F - 32.0 °F 93% 29.76 in 10.0 mi Calm Calm - N/A   Clear
1:55 AM 33.8 °F - 32.0 °F 93% 29.76 in 10.0 mi Calm Calm - N/A   Clear
2:15 AM 42.8 °F - 32.0 °F 66% 29.76 in 10.0 mi Calm Calm - N/A   Clear
2:35 AM 33.8 °F - 32.0 °F 93% 29.75 in 10.0 mi Calm Calm - N/A   Clear
2:55 AM 35.6 °F - 32.0 °F 87% 29.74 in 10.0 mi Calm Calm - N/A   Clear
3:15 AM 41.0 °F 39.0 °F 32.0 °F 70% 29.74 in 10.0 mi WNW 3.5 mph - N/A   Clear
3:35 AM 42.8 °F 40.1 °F 32.0 °F 66% 29.74 in 10.0 mi WNW 4.6 mph - N/A   Clear
3:55 AM 42.8 °F 39.3 °F 32.0 °F 66% 29.73 in 10.0 mi WNW 5.8 mph - N/A   Clear
4:15 AM 42.8 °F 40.1 °F 32.0 °F 66% 29.73 in 10.0 mi WNW 4.6 mph - N/A   Clear
4:35 AM 42.8 °F 41.1 °F 32.0 °F 66% 29.73 in 10.0 mi WNW 3.5 mph - N/A   Clear
4:55 AM 39.2 °F - 32.0 °F 75% 29.73 in 10.0 mi Calm Calm - N/A   Clear
5:15 AM 42.8 °F 39.3 °F 32.0 °F 66% 29.72 in 10.0 mi WNW 5.8 mph - N/A   Clear
5:35 AM 42.8 °F 39.3 °F 30.2 °F 61% 29.72 in 10.0 mi NW 5.8 mph - N/A   Clear
5:55 AM 42.8 °F 39.3 °F 30.2 °F 61% 29.72 in 10.0 mi NW 5.8 mph - N/A   Clear
7:15 AM 42.8 °F 41.1 °F 30.2 °F 61% 29.72 in 10.0 mi WNW 3.5 mph - N/A   Clear
7:35 AM 42.8 °F 39.3 °F 30.2 °F 61% 29.72 in 10.0 mi NW 5.8 mph - N/A   Scattered Clouds
7:55 AM 41.0 °F 39.0 °F 30.2 °F 65% 29.72 in 10.0 mi NW 3.5 mph - N/A   Scattered Clouds
8:15 AM 41.0 °F - 30.2 °F 65% 29.72 in 10.0 mi Calm Calm - N/A   Scattered Clouds
8:35 AM 42.8 °F 41.1 °F 32.0 °F 66% 29.72 in 10.0 mi NW 3.5 mph - N/A   Scattered Clouds
8:55 AM 44.6 °F 43.1 °F 32.0 °F 61% 29.71 in 10.0 mi WNW 3.5 mph - N/A   Mostly Cloudy
9:15 AM 44.6 °F 40.2 °F 32.0 °F 61% 29.72 in 10.0 mi WNW 8.1 mph - N/A   Mostly Cloudy
9:35 AM - - - N/A% 29.72 in - Calm Calm - N/A   Unknown
9:55 AM 44.6 °F - 32.0 °F 61% 29.71 in - Calm Calm - N/A   Unknown
10:15 AM 46.4 °F - 32.0 °F 57% 29.71 in 10.0 mi Calm Calm - N/A   Overcast
10:35 AM 46.4 °F 41.9 °F 30.2 °F 53% 29.70 in 10.0 mi WNW 9.2 mph - N/A   Scattered Clouds
10:55 AM 46.4 °F 41.9 °F 30.2 °F 53% 29.70 in 10.0 mi WNW 9.2 mph 21.9 mph N/A   Mostly Cloudy
11:15 AM 48.2 °F - 30.2 °F 50% 29.70 in 10.0 mi NW 10.4 mph 21.9 mph N/A   Overcast
11:35 AM 46.4 °F 40.4 °F 30.2 °F 53% 29.69 in 10.0 mi WNW 13.8 mph 20.7 mph N/A   Overcast
11:55 AM 48.2 °F - 30.2 °F 50% 29.70 in 10.0 mi WNW 13.8 mph 28.8 mph N/A   Overcast
12:15 PM 48.2 °F - 30.2 °F 50% 29.70 in 10.0 mi WNW 15.0 mph 29.9 mph N/A   Overcast
12:35 PM 48.2 °F - 30.2 °F 50% 29.69 in 10.0 mi WNW 13.8 mph 26.5 mph N/A   Overcast
12:55 PM 46.4 °F 40.4 °F 30.2 °F 53% 29.69 in 10.0 mi WNW 13.8 mph 27.6 mph N/A   Mostly Cloudy
1:15 PM 48.2 °F - 30.2 °F 50% 29.69 in 10.0 mi WNW 16.1 mph 25.3 mph N/A   Mostly Cloudy
1:35 PM 46.4 °F 39.8 °F 30.2 °F 53% 29.68 in 10.0 mi WNW 16.1 mph 26.5 mph N/A   Overcast
1:55 PM 50.0 °F - 30.2 °F 47% 29.67 in 10.0 mi WNW 16.1 mph 27.6 mph N/A   Overcast
2:15 PM 48.2 °F - 30.2 °F 50% 29.67 in 10.0 mi WNW 18.4 mph 27.6 mph N/A   Overcast
2:35 PM 46.4 °F 39.8 °F 30.2 °F 53% 29.66 in 10.0 mi WNW 16.1 mph 36.8 mph N/A   Overcast
2:55 PM 46.4 °F 39.2 °F 30.2 °F 53% 29.65 in 10.0 mi WNW 18.4 mph 31.1 mph N/A   Overcast
3:15 PM 46.4 °F 38.5 °F 28.4 °F 50% 29.65 in 10.0 mi WNW 21.9 mph 36.8 mph N/A   Overcast
3:35 PM 46.4 °F 40.1 °F 30.2 °F 53% 29.64 in 10.0 mi WNW 15.0 mph 27.6 mph N/A   Overcast
3:55 PM 46.4 °F 40.4 °F 30.2 °F 53% 29.64 in 10.0 mi WNW 13.8 mph 25.3 mph N/A   Mostly Cloudy
4:15 PM 46.4 °F 40.7 °F 30.2 °F 53% 29.63 in 10.0 mi NW 12.7 mph 23.0 mph N/A   Light Drizzle
4:35 PM 46.4 °F 40.7 °F 30.2 °F 53% 29.63 in 10.0 mi WNW 12.7 mph 21.9 mph N/A   Overcast
4:55 PM 46.4 °F 39.2 °F 28.4 °F 50% 29.63 in 10.0 mi West 18.4 mph 29.9 mph N/A   Overcast
5:15 PM 44.6 °F 38.8 °F 30.2 °F 57% 29.63 in 10.0 mi WNW 11.5 mph 26.5 mph N/A   Light Drizzle
5:35 PM 44.6 °F 38.4 °F 30.2 °F 57% 29.63 in 10.0 mi WNW 12.7 mph 23.0 mph N/A   Light Drizzle
5:55 PM 44.6 °F 38.1 °F 28.4 °F 53% 29.62 in 10.0 mi WNW 13.8 mph 23.0 mph N/A   Overcast
6:15 PM 44.6 °F 38.1 °F 28.4 °F 53% 29.62 in 10.0 mi WNW 13.8 mph 19.6 mph N/A   Overcast
6:35 PM 44.6 °F 37.8 °F 28.4 °F 53% 29.61 in 10.0 mi West 15.0 mph 25.3 mph N/A   Overcast
6:55 PM 44.6 °F 37.4 °F 28.4 °F 53% 29.61 in 10.0 mi WNW 16.1 mph 23.0 mph N/A   Overcast
7:15 PM 44.6 °F 38.8 °F 28.4 °F 53% 29.61 in 10.0 mi WNW 11.5 mph 23.0 mph N/A   Overcast
7:35 PM 44.6 °F 38.1 °F 28.4 °F 53% 29.61 in 10.0 mi WNW 13.8 mph 24.2 mph N/A   Overcast
7:55 PM 44.6 °F 37.2 °F 28.4 °F 53% 29.60 in 10.0 mi WNW 17.3 mph 29.9 mph N/A   Overcast
8:15 PM 44.6 °F 36.9 °F 28.4 °F 53% 29.60 in 10.0 mi WNW 18.4 mph 27.6 mph N/A   Overcast
8:35 PM 44.6 °F 36.6 °F 28.4 °F 53% 29.59 in 10.0 mi WNW 19.6 mph 26.5 mph N/A   Overcast
11:35 PM 42.8 °F 34.3 °F 28.4 °F 57% 29.57 in 10.0 mi WNW 19.6 mph 25.3 mph N/A   Overcast
11:55 PM 42.8 °F 35.1 °F 28.4 °F 57% 29.56 in 10.0 mi WNW 16.1 mph 27.6 mph N/A   Overcast